Погода в Сухотинке

Россия / Тамбовская область     52°30′30″N   41°34′59″E
темп.,
°C
ветер,
м/с
пор.,
м/с
влажн.,
%
обл.,
%
осадки,
мм/ч
давл.,
гПа
погр.,
м
21 апреля, ср
ср2100:00+9юв11199383 9.0 1003873
03:00+8ююв61490100 9.1 1004461
06:00+9ю71493100 0.6 1005614
09:00+10ю61185100 0.8 1007908
12:00+9ю61191100 0.8 1008838
15:00+6зюз6118890 1.5 1012633
18:00+8юз4979100 0.0 1014932
21:00+6ююв379274 0.0 1016131
22 апреля, чт
чт2200:00+6ю410955 0.1 1017197
03:00+5юз411925 0.2 1018247
06:00+4юз38935 0.0 1019238
09:00+9юз35705 0.0 1021601
12:00+13юз465350 0.0 10211581
15:00+14зюз454799 0.0 10211927
18:00+13зюз125934 0.0 1021136
21:00+10вюв226475 0.0 102215
23 апреля, пт
пт2300:00+10ююв236695 0.0 102135
03:00+8ю34734 0.0 102142
06:00+7ююв347714 0.0 102164
09:00+11ююв3565100 0.0 1021241
12:00+17ю4638100 0.0 10202504
15:00+16ю454280 0.0 10181937
18:00+14ююв585998 0.1 1017259
21:00+10ююв498653 0.3 1017218
24 апреля, сб
сб2400:00+8ююв39905 0.0 1015204
03:00+7юв489474 0.0 1013143
06:00+9ююв51185100 0.1 1012284
09:00+13ю71163100 0.7 1010923
12:00+14ююз101461100 0.9 10081964
15:00+7з71078100 1.7 10111039
18:00+7з477463 0.1 1011904
21:00+5зюз258739 0.4 1013158
25 апреля, вс
вс2500:00+3юз35905 0.0 101394
03:00+3юз3485100 0.0 101375
06:00+3ююз3587100 0.0 1013127
09:00+7зюз346497 0.3 1013554
12:00+9зюз4553100 1.4 10131625
15:00+10з574989 2.7 10131739
18:00+9зюз585280 0.4 1013645
21:00+5юз377596 0.5 1015129